Location: Gulgong NSW 2852, Australia
(32.2976°S, 149.5548°E)
Time: 00:53:17
(UTC+11:00)

X-37B - Pass Details

Date: 12 December 2021
Orbit: 334 x 337 km, 45.0° (Epoch: 11 January)

Event Time Altitude Azimuth Distance (km) Brightness Sun altitude
Exits shadow 04:41:21 21° 273° (W) 844 1.8 -12.7°
Maximum altitude 04:42:56 42° 211° (SSW) 502 1.2 -12.4°
Drops below altitude 10° 04:45:44 10° 137° (SE) 1,296 4.7 -12.0°
Sets 04:47:49 0° 130° (SE) 2,141 6.5 -11.6°
